| time (UTC) | temp F | wind direction | speed MPH | gust MPH | rain 1hr in | rain 24hr in | rain mn in | humidity % | barometer mb |
| 20260503194249 | 64 | 240 | 2.0 | 5.0 | 0.00 | 0.00 | 0.00 | 54 | 1019.4 |
| 20260503193248 | 64 | 80 | 0.0 | 4.0 | 0.00 | 0.00 | 0.00 | 50 | 1019.2 |
| 20260503192748 | 64 | 115 | 3.0 | 4.0 | 0.00 | 0.00 | 0.00 | 52 | 1019.4 |
| 20260503192247 | 64 | 91 | 2.0 | 5.0 | 0.00 | 0.00 | 0.00 | 55 | 1019.4 |
| 20260503191747 | 64 | 105 | 3.0 | 5.0 | 0.00 | 0.00 | 0.00 | 58 | 1019.3 |
| 20260503191247 | 65 | 97 | 3.0 | 5.0 | 0.00 | 0.00 | 0.00 | 57 | 1019.1 |
| 20260503190746 | 64 | 100 | 1.0 | 4.0 | 0.00 | 0.00 | 0.00 | 57 | 1019.2 |
| 20260503190244 | 65 | 85 | 3.0 | 4.0 | 0.00 | 0.00 | 0.00 | 56 | 1019.1 |
| 20260503185243 | 65 | 75 | 2.0 | 4.0 | 0.00 | 0.00 | 0.00 | 54 | 1019.1 |
| 20260503184743 | 65 | 96 | 2.0 | 3.0 | 0.00 | 0.00 | 0.00 | 54 | 1019.2 |
| 20260503184243 | 65 | 92 | 3.0 | 3.0 | 0.00 | 0.00 | 0.00 | 53 | 1019.2 |
| 20260503183742 | 66 | 94 | 1.0 | 3.0 | 0.00 | 0.00 | 0.00 | 52 | 1019.2 |
| 20260503183241 | 65 | 103 | 0.0 | 1.0 | 0.00 | 0.00 | 0.00 | 52 | 1019.1 |
| 20260503182741 | 64 | 129 | 0.0 | 2.0 | 0.00 | 0.00 | 0.00 | 54 | 1019.0 |
| 20260503182240 | 65 | 231 | 0.0 | 2.0 | 0.00 | 0.00 | 0.00 | 54 | 1019.1 |
| 20260503181740 | 65 | 242 | 0.0 | 2.0 | 0.00 | 0.00 | 0.00 | 56 | 1019.2 |
| 20260503181238 | 65 | 313 | 2.0 | 2.0 | 0.00 | 0.00 | 0.00 | 54 | 1019.1 |
| 20260503180739 | 65 | 224 | 0.0 | 4.0 | 0.00 | 0.00 | 0.00 | 55 | 1019.0 |
| 20260503180237 | 65 | 238 | 2.0 | 4.0 | 0.00 | 0.00 | 0.00 | 56 | 1018.8 |
| 20260503175737 | 65 | 260 | 3.0 | 4.0 | 0.00 | 0.00 | 0.00 | 55 | 1019.0 |
| 20260503175236 | 66 | 256 | 3.0 | 5.0 | 0.00 | 0.00 | 0.00 | 55 | 1018.8 |
| 20260503174735 | 66 | 235 | 3.0 | 6.0 | 0.00 | 0.00 | 0.00 | 55 | 1018.8 |
| 20260503174235 | 66 | 248 | 4.0 | 6.0 | 0.00 | 0.00 | 0.00 | 55 | 1019.1 |
| 20260503173734 | 67 | 277 | 2.0 | 5.0 | 0.00 | 0.00 | 0.00 | 55 | 1019.0 |
| 20260503173233 | 67 | 256 | 3.0 | 5.0 | 0.00 | 0.00 | 0.00 | 55 | 1019.0 |
| 20260503172232 | 67 | 249 | 3.0 | 4.0 | 0.00 | 0.00 | 0.00 | 54 | 1019.1 |
| 20260503171732 | 67 | 238 | 3.0 | 6.0 | 0.00 | 0.00 | 0.00 | 54 | 1019.1 |
| 20260503171232 | 67 | 243 | 4.0 | 6.0 | 0.00 | 0.00 | 0.00 | 54 | 1018.8 |
| 20260503170731 | 68 | 224 | 2.0 | 4.0 | 0.00 | 0.00 | 0.00 | 53 | 1019.0 |
| 20260503170230 | 68 | 228 | 2.0 | 4.0 | 0.00 | 0.00 | 0.00 | 53 | 1019.0 |
| 20260503150716 | 74 | 88 | 2.0 | 6.0 | 0.00 | 0.00 | 0.00 | 36 | 1019.5 |
| 20260503130702 | 74 | 94 | 5.0 | 7.0 | 0.00 | 0.00 | 0.00 | 34 | 1020.4 |
| 20260503130201 | 75 | 92 | 4.0 | 7.0 | 0.00 | 0.00 | 0.00 | 32 | 1020.2 |
| 20260503120154 | 74 | 114 | 5.0 | 9.0 | 0.00 | 0.00 | 0.00 | 33 | 1020.6 |
| 20260503110648 | 78 | 81 | 3.0 | 7.0 | 0.00 | 0.00 | 0.00 | 31 | 1021.0 |
| 20260503110147 | 76 | 309 | 1.0 | 4.0 | 0.00 | 0.00 | 0.00 | 33 | 1021.0 |
| 20260503090132 | 73 | 333 | 2.0 | 3.0 | 0.00 | 0.00 | 0.00 | 35 | 1021.8 |
| 20260503081626 | 69 | 65 | 1.0 | 3.0 | 0.00 | 0.00 | 0.00 | 46 | 1022.0 |
| 20260503081126 | 68 | 44 | 2.0 | 3.0 | 0.00 | 0.00 | 0.00 | 46 | 1021.9 |
| 20260503080625 | 67 | 108 | 2.0 | 5.0 | 0.00 | 0.00 | 0.00 | 48 | 1022.0 |
| 20260503080124 | 65 | 93 | 1.0 | 5.0 | 0.00 | 0.00 | 0.00 | 49 | 1021.9 |
| 20260503072119 | 64 | 102 | 3.0 | 4.0 | 0.00 | 0.00 | 0.00 | 48 | 1022.0 |
| 20260503071619 | 63 | 148 | 2.0 | 5.0 | 0.00 | 0.00 | 0.00 | 48 | 1022.1 |
| 20260503071119 | 62 | 245 | 2.0 | 5.0 | 0.00 | 0.00 | 0.00 | 49 | 1021.8 |
| 20260503070618 | 61 | 123 | 2.0 | 6.0 | 0.00 | 0.00 | 0.00 | 50 | 1021.9 |
| 20260503070118 | 60 | 107 | 4.0 | 6.0 | 0.00 | 0.00 | 0.00 | 51 | 1022.0 |
| 20260503060109 | 56 | 82 | 4.0 | 8.0 | 0.00 | 0.00 | 0.00 | 54 | 1021.5 |
| 20260503055108 | 56 | 87 | 5.0 | 8.0 | 0.00 | 0.00 | 0.00 | 53 | 1021.5 |
| 20260503054608 | 55 | 98 | 4.0 | 7.0 | 0.00 | 0.00 | 0.00 | 56 | 1021.7 |
| 20260503054108 | 56 | 82 | 4.0 | 8.0 | 0.00 | 0.00 | 0.00 | 54 | 1021.6 |
| 20260503053607 | 56 | 340 | 0.0 | 8.0 | 0.00 | 0.00 | 0.00 | 53 | 1021.6 |
| 20260503053107 | 54 | 87 | 4.0 | 9.0 | 0.00 | 0.00 | 0.00 | 57 | 1021.7 |
| 20260503052606 | 55 | 83 | 4.0 | 9.0 | 0.00 | 0.00 | 0.00 | 54 | 1021.6 |
| 20260503052105 | 53 | 96 | 4.0 | 9.0 | 0.00 | 0.00 | 0.00 | 59 | 1021.8 |
| 20260503051604 | 53 | 93 | 6.0 | 8.0 | 0.00 | 0.00 | 0.00 | 59 | 1021.7 |
| 20260503051104 | 52 | 84 | 5.0 | 8.0 | 0.00 | 0.00 | 0.00 | 60 | 1021.6 |
| 20260503050604 | 52 | 97 | 5.0 | 8.0 | 0.00 | 0.00 | 0.00 | 60 | 1021.5 |
| 20260503045602 | 52 | 85 | 6.0 | 9.0 | 0.00 | 0.00 | 0.00 | 61 | 1021.6 |
| 20260503044601 | 52 | 86 | 4.0 | 9.0 | 0.00 | 0.00 | 0.00 | 60 | 1021.3 |
| 20260503044101 | 53 | 92 | 6.0 | 9.0 | 0.00 | 0.00 | 0.00 | 57 | 1021.3 |
| 20260503043600 | 54 | 97 | 6.0 | 8.0 | 0.00 | 0.00 | 0.00 | 55 | 1021.3 |
| 20260503043059 | 53 | 96 | 7.0 | 8.0 | 0.00 | 0.00 | 0.00 | 56 | 1021.3 |
| 20260503042559 | 52 | 87 | 4.0 | 8.0 | 0.00 | 0.00 | 0.00 | 58 | 1021.2 |
| 20260503042057 | 52 | 92 | 5.0 | 8.0 | 0.00 | 0.00 | 0.00 | 60 | 1021.4 |
| 20260503041533 | 53 | 78 | 4.0 | 8.0 | 0.00 | 0.00 | 0.00 | 57 | 1021.5 |
| 20260503041033 | 52 | 97 | 4.0 | 9.0 | 0.00 | 0.00 | 0.00 | 57 | 1021.3 |
| 20260503040532 | 52 | 84 | 8.0 | 9.0 | 0.00 | 0.00 | 0.00 | 59 | 1021.2 |
| 20260503040032 | 52 | 95 | 5.0 | 7.0 | 0.00 | 0.00 | 0.00 | 59 | 1021.2 |
| 20260503035532 | 51 | 91 | 4.0 | 6.0 | 0.00 | 0.00 | 0.00 | 58 | 1021.2 |
| 20260503035031 | 52 | 88 | 4.0 | 8.0 | 0.00 | 0.00 | 0.00 | 58 | 1021.3 |
| 20260503034531 | 53 | 89 | 6.0 | 9.0 | 0.00 | 0.00 | 0.00 | 55 | 1021.3 |
| 20260503034030 | 52 | 100 | 7.0 | 9.0 | 0.00 | 0.00 | 0.00 | 58 | 1021.3 |
| 20260503033029 | 52 | 80 | 6.0 | 8.0 | 0.00 | 0.00 | 0.00 | 59 | 1021.4 |
| 20260503032528 | 53 | 96 | 4.0 | 7.0 | 0.00 | 0.00 | 0.00 | 58 | 1021.4 |
| 20260503031528 | 54 | 70 | 2.0 | 9.0 | 0.00 | 0.00 | 0.00 | 55 | 1021.5 |
| 20260503031027 | 52 | 82 | 4.0 | 9.0 | 0.00 | 0.00 | 0.00 | 57 | 1021.6 |
| 20260503030026 | 53 | 98 | 4.0 | 8.0 | 0.00 | 0.00 | 0.00 | 55 | 1021.7 |
| 20260503025525 | 53 | 114 | 4.0 | 11.0 | 0.00 | 0.00 | 0.00 | 59 | 1021.5 |
| 20260503025024 | 51 | 88 | 5.0 | 11.0 | 0.00 | 0.00 | 0.00 | 63 | 1021.5 |
| 20260503024524 | 51 | 79 | 7.0 | 11.0 | 0.00 | 0.00 | 0.00 | 63 | 1021.6 |
| 20260503024024 | 51 | 91 | 7.0 | 11.0 | 0.00 | 0.00 | 0.00 | 62 | 1021.6 |
| 20260503023500 | 52 | 89 | 9.0 | 11.0 | 0.00 | 0.00 | 0.00 | 61 | 1021.5 |
| 20260503023000 | 52 | 86 | 8.0 | 11.0 | 0.00 | 0.00 | 0.00 | 61 | 1021.6 |
| 20260503022459 | 52 | 93 | 6.0 | 11.0 | 0.00 | 0.00 | 0.00 | 61 | 1021.5 |
| 20260503021959 | 52 | 85 | 6.0 | 9.0 | 0.00 | 0.00 | 0.00 | 60 | 1021.5 |
| 20260503021458 | 53 | 96 | 8.0 | 9.0 | 0.00 | 0.00 | 0.00 | 59 | 1021.5 |
| 20260503015957 | 53 | 104 | 6.0 | 9.0 | 0.00 | 0.00 | 0.00 | 59 | 1021.5 |
| 20260503015456 | 53 | 88 | 7.0 | 9.0 | 0.00 | 0.00 | 0.00 | 61 | 1021.4 |
| 20260503014956 | 54 | 105 | 6.0 | 8.0 | 0.00 | 0.00 | 0.00 | 58 | 1021.6 |
| 20260503014454 | 54 | 120 | 4.0 | 7.0 | 0.00 | 0.00 | 0.00 | 55 | 1021.6 |
| 20260503013454 | 53 | 84 | 5.0 | 8.0 | 0.00 | 0.00 | 0.00 | 58 | 1021.6 |
| 20260503012954 | 52 | 82 | 7.0 | 8.0 | 0.00 | 0.00 | 0.00 | 64 | 1021.8 |
| 20260503011952 | 54 | 138 | 3.0 | 5.0 | 0.00 | 0.00 | 0.00 | 56 | 1021.6 |
| 20260503011451 | 55 | 107 | 3.0 | 5.0 | 0.00 | 0.00 | 0.00 | 58 | 1021.9 |
| 20260503010952 | 55 | 27 | 1.0 | 4.0 | 0.00 | 0.00 | 0.00 | 54 | 1021.5 |
| 20260503010451 | 54 | 92 | 3.0 | 5.0 | 0.00 | 0.00 | 0.00 | 57 | 1021.8 |
| 20260503005950 | 53 | 122 | 1.0 | 5.0 | 0.00 | 0.00 | 0.00 | 61 | 1021.8 |
| 20260503005450 | 53 | 105 | 2.0 | 5.0 | 0.00 | 0.00 | 0.00 | 62 | 1021.8 |
| 20260503004949 | 53 | 302 | 0.0 | 6.0 | 0.00 | 0.00 | 0.00 | 60 | 1021.9 |
| 20260503004448 | 51 | 109 | 3.0 | 6.0 | 0.00 | 0.00 | 0.00 | 65 | 1022.2 |
| 20260503003948 | 51 | 103 | 5.0 | 5.0 | 0.00 | 0.00 | 0.00 | 68 | 1022.2 |
| 20260503003447 | 51 | 110 | 3.0 | 5.0 | 0.00 | 0.00 | 0.00 | 66 | 1022.1 |
| 20260503002947 | 52 | 113 | 4.0 | 6.0 | 0.00 | 0.00 | 0.00 | 66 | 1022.1 |
| 20260503002446 | 51 | 111 | 3.0 | 6.0 | 0.00 | 0.00 | 0.00 | 68 | 1022.0 |
| 20260503001446 | 52 | 111 | 2.0 | 6.0 | 0.00 | 0.00 | 0.00 | 65 | 1022.3 |
| 20260503000945 | 53 | 101 | 5.0 | 6.0 | 0.00 | 0.00 | 0.00 | 64 | 1022.4 |
| 20260503000444 | 53 | 108 | 5.0 | 6.0 | 0.00 | 0.00 | 0.00 | 64 | 1022.3 |
| 20260502235944 | 53 | 91 | 4.0 | 7.0 | 0.00 | 0.00 | 0.00 | 64 | 1022.5 |
| 20260502235443 | 53 | 104 | 3.0 | 7.0 | 0.00 | 0.00 | 0.00 | 63 | 1022.5 |
| 20260502234942 | 53 | 87 | 6.0 | 8.0 | 0.00 | 0.00 | 0.00 | 64 | 1022.5 |
| 20260502234442 | 53 | 80 | 5.0 | 8.0 | 0.00 | 0.00 | 0.00 | 63 | 1022.6 |
| 20260502233942 | 52 | 98 | 4.0 | 8.0 | 0.00 | 0.00 | 0.00 | 65 | 1022.6 |
| 20260502233441 | 53 | 99 | 5.0 | 9.0 | 0.00 | 0.00 | 0.00 | 64 | 1022.7 |
| 20260502232941 | 53 | 88 | 6.0 | 9.0 | 0.00 | 0.00 | 0.00 | 64 | 1022.7 |
| 20260502232440 | 53 | 93 | 5.0 | 7.0 | 0.00 | 0.00 | 0.00 | 64 | 1023.0 |
| 20260502231939 | 55 | 92 | 4.0 | 8.0 | 0.00 | 0.00 | 0.00 | 60 | 1022.8 |
| 20260502231439 | 56 | 91 | 5.0 | 8.0 | 0.00 | 0.00 | 0.00 | 57 | 1022.8 |
| 20260502230938 | 55 | 59 | 4.0 | 6.0 | 0.00 | 0.00 | 0.00 | 59 | 1022.8 |
| 20260502225937 | 57 | 105 | 4.0 | 5.0 | 0.00 | 0.00 | 0.00 | 56 | 1023.0 |
| 20260502224936 | 57 | 69 | 1.0 | 6.0 | 0.00 | 0.00 | 0.00 | 55 | 1023.2 |
| 20260502224435 | 57 | 102 | 4.0 | 6.0 | 0.00 | 0.00 | 0.00 | 54 | 1023.2 |
| 20260502223935 | 57 | 92 | 4.0 | 6.0 | 0.00 | 0.00 | 0.00 | 54 | 1023.0 |
| 20260502223434 | 57 | 97 | 4.0 | 7.0 | 0.00 | 0.00 | 0.00 | 54 | 1023.2 |
| 20260502222434 | 57 | 98 | 3.0 | 6.0 | 0.00 | 0.00 | 0.00 | 53 | 1023.3 |
| 20260502221933 | 57 | 87 | 3.0 | 5.0 | 0.00 | 0.00 | 0.00 | 54 | 1023.2 |
| 20260502221432 | 57 | 106 | 2.0 | 5.0 | 0.00 | 0.00 | 0.00 | 54 | 1023.1 |
| 20260502220932 | 57 | 71 | 3.0 | 6.0 | 0.00 | 0.00 | 0.00 | 54 | 1023.4 |
| 20260502220431 | 57 | 95 | 4.0 | 6.0 | 0.00 | 0.00 | 0.00 | 54 | 1023.1 |
| 20260502215931 | 57 | 86 | 5.0 | 6.0 | 0.00 | 0.00 | 0.00 | 54 | 1023.0 |
| 20260502215430 | 56 | 93 | 4.0 | 7.0 | 0.00 | 0.00 | 0.00 | 55 | 1023.3 |
| 20260502214930 | 56 | 87 | 5.0 | 7.0 | 0.00 | 0.00 | 0.00 | 56 | 1023.5 |
| 20260502214429 | 56 | 88 | 5.0 | 8.0 | 0.00 | 0.00 | 0.00 | 56 | 1023.2 |
| 20260502213929 | 57 | 82 | 7.0 | 8.0 | 0.00 | 0.00 | 0.00 | 55 | 1023.4 |
| 20260502212928 | 56 | 96 | 6.0 | 7.0 | 0.00 | 0.00 | 0.00 | 55 | 1023.4 |
| 20260502212427 | 56 | 95 | 6.0 | 8.0 | 0.00 | 0.00 | 0.00 | 55 | 1023.5 |
| 20260502211927 | 57 | 76 | 6.0 | 8.0 | 0.00 | 0.00 | 0.00 | 54 | 1023.4 |
| 20260502211426 | 57 | 93 | 5.0 | 7.0 | 0.00 | 0.00 | 0.00 | 53 | 1023.4 |
| 20260502210926 | 57 | 75 | 5.0 | 7.0 | 0.00 | 0.00 | 0.00 | 53 | 1023.3 |
| 20260502210425 | 57 | 98 | 5.0 | 6.0 | 0.00 | 0.00 | 0.00 | 53 | 1023.5 |
| 20260502205924 | 57 | 112 | 3.0 | 6.0 | 0.00 | 0.00 | 0.00 | 53 | 1023.4 |
| 20260502205425 | 57 | 87 | 5.0 | 5.0 | 0.00 | 0.00 | 0.00 | 53 | 1023.5 |
| 20260502204924 | 57 | 80 | 2.0 | 5.0 | 0.00 | 0.00 | 0.00 | 53 | 1023.4 |
| 20260502204423 | 57 | 96 | 4.0 | 5.0 | 0.00 | 0.00 | 0.00 | 53 | 1023.2 |
| 20260502203922 | 57 | 89 | 4.0 | 4.0 | 0.00 | 0.00 | 0.00 | 53 | 1023.3 |
| 20260502202922 | 57 | 93 | 2.0 | 4.0 | 0.00 | 0.00 | 0.00 | 53 | 1023.5 |
| 20260502202421 | 57 | 103 | 2.0 | 4.0 | 0.00 | 0.00 | 0.00 | 52 | 1023.4 |
| 20260502201920 | 57 | 92 | 2.0 | 3.0 | 0.00 | 0.00 | 0.00 | 51 | 1023.5 |
| 20260502201420 | 57 | 57 | 2.0 | 2.0 | 0.00 | 0.00 | 0.00 | 52 | 1023.3 |
| 20260502200920 | 57 | 117 | 0.0 | 2.0 | 0.00 | 0.00 | 0.00 | 52 | 1023.5 |
| 20260502200418 | 56 | 304 | 1.0 | 2.0 | 0.00 | 0.00 | 0.00 | 53 | 1023.4 |